Theta_e
311 312 313 313 311 311 311 311 312 310 310 313 313 315 315 315 316 317 317 318 318 319 332 352 352 349 349 350 348 347 346 347 348 346 345 346 345 345 344 343 343 342 342 340
312 314 313 312 312 311 312 312 313 312 309 310 310 312 314 315 316 317 318 318 319 319 340 351 350 349 348 348 347 347 347 349 346 345 345 345 344 344 344 344 344 343 344 343
315 314 312 312 312 312 312 313 313 312 311 310 310 310 311 312 315 316 318 319 319 320 338 351 351 349 348 347 346 346 345 345 346 344 345 346 346 346 347 347 346 344 343 343
315 314 314 314 314 313 315 313 311 312 312 313 310 310 309 311 312 316 318 319 319 319 333 349 350 349 348 347 348 346 345 344 344 344 345 346 346 345 343 342 339 338 337 334
315 315 316 317 316 315 317 313 312 313 313 312 310 313 311 313 316 316 318 320 319 319 328 346 349 347 347 348 347 346 345 345 345 345 347 345 341 339 337 335 333 332 332 332
315 313 314 316 315 314 315 315 313 312 311 312 310 311 310 313 316 318 317 320 319 318 326 344 347 347 347 346 345 344 345 346 347 346 344 342 341 337 334 334 334 333 333 333
315 315 314 315 316 314 316 316 317 317 316 314 310 310 311 315 316 318 318 320 319 318 333 345 349 348 345 344 344 344 344 346 345 343 342 340 340 338 336 335 333 332 330 331
318 317 316 316 316 317 318 315 315 314 314 312 311 313 312 312 316 318 319 320 318 318 337 346 348 348 345 344 344 343 345 347 344 342 340 339 340 339 337 333 331 331 331 330
321 318 314 316 316 315 317 317 312 316 311 310 312 312 313 312 314 318 319 319 319 318 338 347 349 347 342 342 341 342 344 344 344 340 339 340 339 338 334 333 332 329 327 324
314 319 314 316 316 315 316 312 315 316 315 315 310 310 312 315 314 318 321 319 320 320 334 345 346 341 340 339 339 339 340 340 339 338 339 339 335 331 330 329 326 324 322 318
310 311 316 317 317 316 317 317 315 313 314 318 313 310 311 319 317 320 321 320 320 327 335 342 341 337 335 332 333 334 336 338 337 337 335 331 329 327 327 323 321 319 317 315
311 314 320 316 315 314 314 316 314 317 312 317 326 319 317 320 322 322 321 318 325 334 340 337 332 331 330 328 329 329 330 331 331 330 328 326 326 325 323 319 316 315 314 313
312 317 321 317 316 315 319 315 315 315 317 317 320 331 334 335 331 319 321 327 339 339 334 331 330 328 325 324 324 323 324 324 325 323 322 321 320 318 316 314 313 313 312 312
312 315 321 319 316 316 317 316 315 315 317 317 317 317 324 336 327 330 336 339 338 334 332 329 326 323 322 321 320 319 319 320 320 321 320 318 316 315 314 313 312 311 312 310
312 318 318 318 319 319 318 316 318 318 317 322 319 322 323 335 337 340 337 336 334 331 329 326 323 321 321 321 320 318 318 318 318 317 315 315 314 314 313 312 310 309 308 307
311 319 318 321 320 319 317 317 318 319 319 320 321 322 324 336 338 337 335 332 331 328 325 322 320 321 322 321 321 320 318 318 318 317 316 316 315 314 312 310 309 307 306 305
313 319 321 325 321 321 323 321 322 322 319 320 323 325 336 337 335 333 331 329 327 323 321 319 319 320 318 318 318 318 316 315 315 316 316 315 314 313 311 310 308 307 305 304
312 317 320 326 322 324 321 314 316 318 319 320 322 325 323 322 324 326 325 325 323 321 319 318 317 316 315 316 316 316 315 315 315 315 315 314 313 311 311 310 308 306 303 302
308 313 323 326 326 324 319 313 313 311 314 316 322 321 320 319 317 316 317 317 317 316 316 315 315 314 314 314 314 314 314 314 314 313 313 312 312 312 311 309 307 304 303 302
306 310 321 322 322 323 316 309 307 309 319 315 317 323 323 324 321 315 314 313 313 312 312 312 311 311 312 312 312 313 313 312 312 311 311 312 312 312 310 309 307 304 303 302
308 307 314 317 321 320 307 305 309 326 318 312 316 320 320 318 314 311 309 308 308 309 310 310 309 309 309 309 310 310 309 309 308 308 309 309 311 312 310 308 305 303 302 302
306 306 310 312 318 322 304 306 318 311 309 312 312 311 310 308 307 307 307 307 307 308 308 308 307 306 307 308 308 307 306 305 305 305 304 305 307 309 309 307 304 302 300 299
307 303 304 306 309 305 302 303 307 309 308 310 308 308 308 306 305 304 304 305 306 307 306 306 304 304 305 305 306 304 303 303 303 303 303 303 304 304 303 302 300 298 297 297
302 301 304 304 306 301 302 304 308 312 310 308 306 305 304 304 303 303 302 303 304 305 304 304 303 301 300 301 302 302 302 302 302 302 302 302 301 300 298 297 297 296 296 296
301 301 301 304 301 300 302 302 305 307 307 307 307 306 306 303 302 301 300 300 301 301 301 300 300 299 299 300 300 301 301 302 301 301 300 299 298 297 296 295 295 294 294 295
301 301 301 304 300 299 299 302 303 305 305 305 304 303 304 302 301 300 298 297 298 298 298 297 296 296 296 298 299 299 300 301 301 301 300 299 298 297 297 296 293 292 293 292
Wind_Speed
6 9 14 19 17 17 14 16 16 12 10 11 19 16 17 14 20 18 16 16 14 13 14 25 27 29 28 27 26 28 27 27 27 22 20 16 16 13 10 9 9 9 6 6
6 17 20 20 18 19 20 21 19 17 15 14 22 22 20 17 24 17 17 19 16 10 14 20 27 29 29 30 30 29 30 25 24 19 16 10 14 10 8 7 7 7 8 8
15 19 9 12 17 19 21 21 16 20 11 17 18 23 26 24 24 19 19 20 17 14 17 21 21 29 28 27 29 31 30 26 23 18 15 11 12 13 12 13 13 12 11 10
15 14 18 19 22 18 23 18 18 17 9 10 10 13 18 15 26 22 21 19 19 14 19 22 22 24 29 32 30 25 23 22 20 19 15 14 12 12 17 24 27 24 20 17
11 10 7 13 20 18 22 16 15 16 16 14 17 10 18 17 17 23 24 21 20 15 20 23 22 27 31 27 25 21 20 20 19 19 17 18 23 25 27 29 29 26 23 19
25 19 14 20 17 13 4 9 8 10 10 10 25 17 15 17 24 20 24 21 21 15 20 20 25 28 23 22 21 21 20 21 22 21 21 22 30 32 28 28 29 25 23 20
8 14 14 10 11 6 11 9 5 7 7 14 13 16 20 19 22 23 25 21 19 14 17 19 20 17 22 23 22 24 24 25 25 26 25 28 33 32 32 25 29 28 25 22
4 6 10 11 12 8 13 17 6 8 9 12 13 15 18 30 23 12 15 16 14 15 17 18 19 16 21 23 24 24 26 27 26 29 29 27 28 26 20 25 28 26 25 25
4 7 6 12 12 8 3 11 10 4 11 9 15 17 16 25 21 21 16 16 17 17 18 20 18 19 22 23 24 27 28 27 25 26 28 21 19 20 23 23 21 22 24 23
2 8 8 3 7 10 4 6 6 5 5 10 14 22 13 22 25 19 18 20 17 16 19 18 18 19 21 22 26 28 28 28 27 24 20 20 21 22 24 21 25 23 22 24
5 6 2 5 8 9 5 4 4 5 8 6 10 15 19 14 24 22 21 22 20 19 20 19 16 22 26 26 28 29 30 33 31 26 27 26 27 27 28 23 23 26 25 23
7 4 5 7 5 3 11 7 15 9 9 8 7 4 13 16 15 21 19 19 21 21 20 18 18 24 26 25 26 26 27 30 29 29 30 30 30 31 29 26 25 27 25 21
4 3 2 4 5 1 5 14 15 12 4 11 6 2 4 6 10 12 19 24 23 23 19 18 18 17 22 23 24 24 23 27 27 26 29 29 32 34 32 29 25 24 23 19
7 4 4 6 4 1 5 10 14 14 6 6 11 20 22 9 15 19 22 25 23 20 21 20 17 16 23 25 26 26 26 26 29 30 29 28 30 30 26 23 21 20 18 16
3 4 3 12 14 13 11 8 9 12 14 6 9 14 17 11 21 23 24 25 23 20 20 19 19 17 24 29 28 29 29 28 29 30 30 28 29 25 24 22 20 19 18 16
3 4 6 4 5 7 8 10 11 13 10 12 11 17 17 17 20 19 23 24 22 21 20 20 20 20 25 30 31 32 30 28 28 28 27 25 24 23 22 20 19 18 16 14
4 5 4 4 1 5 6 3 9 9 8 11 6 7 18 16 18 18 19 20 23 22 21 20 20 21 26 29 32 32 30 29 30 29 26 24 22 21 20 18 17 16 15 14
6 7 3 3 2 3 4 11 7 10 12 13 8 10 20 20 18 17 16 20 21 20 20 19 19 28 30 32 32 32 31 29 28 26 24 22 21 20 18 17 16 15 14 14
8 4 3 3 3 2 4 9 6 7 9 14 4 20 22 22 26 16 16 18 18 18 17 23 29 30 31 33 33 33 30 27 26 24 22 21 20 19 17 16 15 14 14 14
8 6 3 3 2 4 4 15 15 2 3 12 10 17 20 20 12 4 12 20 18 21 26 29 30 31 32 30 31 33 29 26 23 21 20 19 19 18 16 15 14 13 13 13
7 5 6 6 2 3 9 23 10 5 5 14 7 3 13 12 9 12 16 19 22 26 29 31 29 30 29 30 31 29 26 23 21 20 19 18 17 18 16 15 13 12 11 11
5 7 4 4 3 2 19 13 8 4 13 11 12 14 22 22 18 15 17 20 19 21 30 29 30 27 29 28 30 26 24 20 21 21 20 19 17 16 14 15 13 11 11 10
2 4 5 4 3 6 12 12 16 11 5 5 13 12 21 22 18 15 16 18 17 27 28 28 28 28 27 26 25 26 19 20 21 21 20 18 17 16 14 15 13 12 11 11
2 3 3 6 3 13 11 16 14 7 10 12 14 15 20 23 19 16 15 13 14 25 26 27 30 27 24 24 22 21 19 19 21 21 20 18 18 17 15 15 13 12 12 11
3 7 7 4 4 10 12 17 13 11 11 16 15 14 20 22 20 19 12 13 18 22 23 25 26 25 24 23 20 17 18 19 21 20 18 18 17 17 17 17 14 14 14 11
3 5 4 3 6 4 6 11 11 11 11 12 19 17 15 20 17 17 12 15 18 21 23 24 22 24 22 21 20 17 16 18 20 19 17 16 15 15 15 16 17 16 14 15
Wind_Direction
203 225 237 244 236 249 261 262 262 261 272 285 260 273 272 275 274 268 267 267 263 245 209 193 181 181 182 185 182 181 179 187 186 190 189 194 191 192 195 203 211 211 206 202
243 246 254 256 253 248 252 257 259 263 250 257 264 270 269 261 264 264 267 261 259 238 193 182 181 181 183 180 184 183 190 190 191 188 183 182 175 177 179 177 165 153 135 144
262 265 281 243 248 245 244 249 253 253 262 259 266 270 265 254 258 257 253 254 256 229 195 183 178 181 180 185 188 190 189 189 186 175 166 139 141 134 124 122 126 141 142 134
275 287 249 252 251 244 257 241 239 242 243 254 206 265 258 249 245 240 243 241 241 221 203 183 179 178 178 193 194 188 181 180 174 173 163 149 156 121 123 114 120 116 114 100
251 262 234 234 248 252 255 247 234 237 239 263 249 256 263 242 240 227 229 232 236 223 198 188 176 177 189 187 184 175 169 167 164 163 157 135 122 115 111 115 111 107 107 104
260 258 268 254 258 256 250 215 236 222 233 242 241 224 251 233 220 225 222 221 229 207 197 187 178 178 177 174 165 155 153 150 150 141 148 147 132 125 117 117 116 119 117 114
301 256 239 241 232 227 186 155 179 197 199 239 234 233 235 208 226 224 217 212 214 200 191 181 173 165 163 157 152 151 139 138 136 136 144 137 136 140 138 141 142 140 133 129
287 301 189 185 210 203 199 193 190 212 214 247 219 226 231 232 243 247 245 212 196 186 181 180 173 164 157 152 147 148 142 135 132 137 137 140 142 156 155 149 144 138 139 136
280 249 239 215 214 192 184 208 207 316 247 256 223 232 250 230 228 236 240 193 183 182 173 175 163 155 148 145 142 143 141 138 142 146 143 154 158 155 147 149 146 146 144 135
289 280 252 304 194 186 203 195 170 217 241 233 231 228 232 204 214 221 212 196 180 173 162 155 149 139 132 128 134 134 137 141 150 152 151 147 148 139 135 140 140 135 131 133
206 220 307 173 204 198 187 182 191 250 238 267 275 225 210 219 200 204 201 183 169 164 154 144 132 127 118 116 122 129 137 138 141 148 148 140 135 128 134 129 130 134 139 139
206 270 253 238 143 131 202 200 205 220 226 234 282 204 191 208 195 195 195 165 158 146 142 131 127 121 114 112 118 121 129 133 139 141 135 132 135 133 130 128 130 136 133 130
186 239 279 201 215 166 204 216 220 236 271 283 341 82 341 200 162 166 160 149 142 131 123 129 122 111 112 116 116 118 122 122 125 122 124 124 128 131 129 129 129 128 127 121
200 242 268 274 312 148 226 208 219 226 267 311 264 288 283 169 151 145 148 137 129 127 134 121 108 110 114 116 117 118 113 119 122 123 124 120 121 124 123 120 119 115 111 107
268 269 261 279 262 255 244 203 194 214 228 251 307 287 297 165 144 139 138 126 125 124 118 118 119 118 121 121 122 114 113 115 117 114 114 115 116 118 117 113 109 106 103 101
293 297 307 297 14 206 201 185 199 251 261 239 253 275 267 144 117 128 129 128 126 122 118 119 117 123 124 125 122 118 118 118 120 116 114 116 117 115 111 108 106 104 100 99
299 311 326 15 324 130 130 39 323 315 306 294 241 239 125 113 118 118 122 125 124 120 122 120 121 119 120 120 120 119 120 119 110 113 116 116 115 113 113 112 109 104 97 95
315 322 311 339 343 320 43 22 35 321 296 325 234 123 92 85 80 88 103 114 114 117 120 119 115 115 118 119 115 118 118 118 118 118 118 118 120 119 119 116 111 102 97 89
347 298 301 314 341 318 21 13 351 357 328 345 77 101 101 99 80 52 83 91 100 107 110 108 112 117 119 117 117 117 117 117 119 119 120 124 125 123 123 118 115 108 97 84
1 327 290 357 18 354 358 321 313 282 340 345 323 125 122 118 106 88 100 101 98 100 104 108 111 110 107 114 115 114 116 117 115 117 118 123 128 126 126 122 115 107 96 86
344 348 17 352 353 97 354 322 304 318 5 306 32 54 103 98 92 109 100 89 93 99 103 108 109 103 105 110 111 110 112 110 114 113 114 112 118 124 127 122 117 111 99 88
348 332 354 309 330 22 355 344 3 306 331 98 77 97 99 98 93 96 99 98 100 105 109 109 106 103 106 111 112 109 107 114 114 114 111 108 109 115 119 118 112 104 95 79
316 13 308 335 337 320 319 283 284 269 252 78 101 95 104 99 91 91 95 100 105 109 111 111 107 101 95 103 110 109 111 115 113 110 106 104 104 106 109 109 102 88 77 68
310 13 264 313 52 336 324 344 2 50 103 102 95 100 96 97 90 86 76 87 102 107 107 110 104 96 93 97 100 106 113 114 111 106 104 105 105 100 94 90 83 81 74 71
317 310 324 278 348 332 2 351 7 44 74 96 90 96 100 89 86 81 72 73 83 96 102 103 100 99 96 98 98 104 110 115 110 108 108 104 101 100 95 88 84 83 77 84
339 331 345 327 341 304 301 332 34 49 70 87 96 83 84 98 95 91 80 78 81 91 96 92 92 93 95 99 101 102 110 115 115 111 107 108 108 109 110 106 92 87 90 86